www.pogodaiklimat.ru

ПОГОДА в Конкорде, NC

  • Прогноз погоды в Конкорде
  • Монитор погоды в Конкорде
  • Климат в Конкорде

АРХИВ ПОГОДЫ в Конкорде

Время (UTC), дата Ветер
(напр.,м/с)
 
Видим.   Явления Облачность Т
(С)
Тd
(С)
f
(%)
Тe
(С)
Тes
(С)
Комфортность

P
(гПа)

Po
(гПа)
Тmin
(С)
Tmax
(С)
R
(мм)
SD
(см)
13:52 16.05 С  16 км    ясно  +22.0  +11.0  50  +24  +35  комфорт    994.1         
14:50 16.05 З  16 км    ясно  +23.0  +9.0  41  +24  +41  комфорт    993.4         
15:50 16.05   16 км    ясно  +24.0  +10.0  41  +25  +50  комфорт    992.4         
16:50 16.05   16 км    5/5 1650 м  +24.0  +11.0  44  +25  +39  комфорт    991.7         
17:52 16.05 З  16 км    5/5 1650 м  +26.0  +11.0  39  +27  +35  жарко    991.1         
18:59 16.05   16 км    8/8 1650 м  +25.0  +12.0  44  +27  +31  жарко    990.4         
19:59 16.05 З  16 км    5/5 1800 м  +27.0  +12.0  39  +28  +33  жарко    990.1         
20:50 16.05 ЮЗ  16 км    ясно  +27.0  +12.0  39  +28  +34  жарко    989.4         
21:50 16.05 ЮЗ  16 км    ясно  +26.0  +11.0  39  +27  +31  жарко    989.1         
22:50 16.05 ЮЗ  16 км    ясно  +25.0  +12.0  44  +27  +28  жарко    989.1         
23:58 16.05   16 км    ясно  +20.0  +14.0  68  +22  +22  комфорт    989.4         
00:50 17.05   16 км    ясно  +19.0  +14.0  73  +20  +20      989.8         
01:50 17.05   16 км    ясно  +18.0  +14.0  77  +18  +18      990.4         
09:50 17.05   16 км    ясно  +14.0  +13.0  94  +14  +14      989.8         
10:55 17.05   16 км    ясно  +17.0  +16.0  94  +17  +17      990.1         
11:50 17.05   16 км    ясно  +21.0  +17.0  78  +25  +28  комфорт    990.7         
13:53 17.05 З  16 км    ясно  +27.0  +16.0  51  +30  +40  душно    991.1         
14:50 17.05 ЮЗ  16 км    ясно  +28.0  +15.0  45  +31  +42  душно    990.7         
15:55 17.05 З  16 км    ясно  +30.0  +14.0  38  +32  +47  жарко    990.4         
16:53 17.05 ЮЗ  16 км    ясно  +30.0  +14.0  38  +32  +54  опасность
солнечного
удара 
  989.8         
17:50 17.05 ЮЗ  16 км    ясно  +31.0  +14.0  36  +33  +46  душно    989.1         
18:50 17.05 ЮЗ  16 км    ясно  +31.0  +14.0  36  +33  +42  душно    988.8         
19:55 17.05 ЮЗ  16 км    ясно  +31.0  +15.0  38  +33  +48  душно    988.4         
20:55 17.05 З  16 км    ясно  +31.0  +16.0  40  +34  +38  душно    988.4         
21:55 17.05 З  16 км    ясно  +31.0  +16.0  40  +34  +38  душно    988.1         
22:50 17.05 ЮЗ  16 км    ясно  +28.0  +17.0  51  +32  +33  душно    988.4         
23:50 17.05 ЮЗ  16 км    ясно  +27.0  +17.0  54  +31  +31  душно    988.8         
00:50 18.05   16 км    ясно  +26.0  +17.0  58  +30  +30  душно    989.8         
01:50 18.05   16 км    ясно  +24.0  +18.0  69  +28  +28  душно    990.4         
09:55 18.05   16 км    ясно  +17.0  +17.0  100  +17  +17      992.1         
10:55 18.05   16 км    ясно  +21.0  +18.0  83  +25  +25  комфорт    992.4         
11:55 18.05 С  16 км    ясно  +24.0  +17.0  65  +28  +30  душно    993.1         
12:50 18.05   16 км    ясно  +27.0  +17.0  54  +31  +39  душно    993.4         
13:50 18.05   16 км    ясно  +29.0  +17.0  48  +33  +47  очень
душно 
  993.7         
14:50 18.05   16 км    ясно  +30.0  +16.0  43  +33  +53  опасность
солнечного
удара 
  993.4         
15:55 18.05 В  16 км    ясно  +31.0  +16.0  40  +34  +51  опасность
солнечного
удара 
  993.1         
16:50 18.05 ЮЗ  16 км    ясно  +32.0  +16.0  38  +35  +51  опасность
солнечного
удара 
  992.4         
17:55 18.05 Ю  16 км    ясно  +32.0  +16.0  38  +35  +51  опасность
солнечного
удара 
  991.7         
18:50 18.05 Ю  16 км    ясно  +32.0  +16.0  38  +35  +51  опасность
солнечного
удара 
  991.1         
19:50 18.05   16 км    ясно  +32.0  +16.0  38  +35  +53  опасность
солнечного
удара 
  990.4         
20:50 18.05 Ю  16 км    ясно  +32.0  +15.0  36  +34  +42  душно    990.4         
21:50 18.05 Ю  16 км    ясно  +31.0  +14.0  36  +33  +37  душно    990.4         
22:50 18.05 Ю  16 км    ясно  +29.0  +16.0  45  +32  +34  душно    991.1         
23:50 18.05   16 км    ясно  +27.0  +17.0  54  +31  +31  душно    991.4         
00:59 19.05   16 км    ясно  +23.0  +17.0  69  +28  +28  душно    992.1         
01:50 19.05   16 км    ясно  +22.0  +17.0  73  +26  +26  душно    992.4         
02:50 19.05   16 км    ясно  +22.0  +17.0  73  +26  +26  душно    992.4         
03:50 19.05   16 км    ясно  +22.0  +18.0  78  +27  +27  душно    992.4         

 

Местоположение метеостанции Concord Regional Airport: широта 35.3853 долгота -80.7097 высота над уровнем моря 210 м.

В архиве по умолчанию представлена погода в Конкорде за последние 1-2 суток. Обновление информации о фактической погоде в базе происходит ежечасно! Архивные данные за месяц целиком и за предыдущие месяцы Вы можете получить, выбрав интересующий диапазон дат из раскрывающегося списка и нажав кнопку "Ввод!".

Внимание! Архив погоды МЕТАР в базе сайта хранится не более 60 дней. Нет смысла пытаться выбрать более раннюю дату.

Внимание! Время в таблицах - всемирное. Для получения местного времени необходимо прибавить поправку, которая в Конкорде равна -5 ч.

Ветер - указаны скорость ветра в м/с и направление, откуда дует ветер: С - северный, СВ - северо-восточный, В - восточный, ЮВ - юго-восточный, Ю - южный, ЮЗ - юго-западный, З - западный, СЗ - северо-западный.
Видимость - горизонтальная дальность видимости в метрах или километрах. При видимости от 1 до 10 км при отсутствии осадков обычно наблюдается дымка, при ухудшении видимости до 1 км и менее - туман. В сухую погоду видимость может ухудшаться дымом, пылью или мглою.
Атмосферные явления - указаны явления, наблюдавшиеся в указанный момент времени.
Облачность - указаны через наклонную черту верхняя и нижняя облачность в баллах и высота нижней границы облаков в метрах. Внимание: облачность, как и прочие метеорологические величины в США измеряются автоматическими метеостанциями. Указанные значения в баллах носят условный характер и показывают процент времени, в течение которого, в среднем, лазерный луч высотомера отражался от облаков обратно.
T - Температура воздуха - температура, измеренная на высоте 2 м над землей.
Td - Температура точки росы - температура, при понижении до которой содержащийся в воздухе водяной пар достигнет насыщения.
f - Относительная влажность воздуха - влажноcть воздуха, измеренная на высоте 2 м над землей.
Te - Эффективная температура - температура, которую ощущает одетый по сезону человек в тени. Характеристика душности погоды. При расчете учитывается влияние влажности воздуха и скорости ветра на теплоощущения человека.
Tes - Эффективная температура на солнце - температура, которую ощущает человек, с поправкой на солнечный нагрев. Характеристика знойности погоды. Зависит от высоты солнца над горизонтом, облачности и скорости ветра. Ночью, в пасмурную погоду, а также при ветре 12 м/с и более поправка равна нулю.
P - Атмосферное давление - приведенное к уровню моря атмосферное давление.
Po - Атмосферное давление - измеренное на уровне метеостанции атмосферное давление.
Tmin - Минимальная температура - минимум температуры воздуха на высоте 2 м над землей.
Tmax - Максимальная температура - максимум температуры воздуха на высоте 2 м над землей.
R - Количество осадков - Количество выпавших осадков за 3 или 6 часов, мм.
SD - Снежный покров - Высота снежного покрова, см.